User: anonymous   Login
Location: Newark
(15.4608°S, 41.1635°W)
Time: 22:56:16
(UTC+00:00)
Language:

Transit 4A - Orbit

View from above orbital plane
View from above orbital plane
View from above satellite
View from above satellite

Ground track
Ground track

The orbit data is extracted from the following two-line orbital elements,

1 00116U 61015A   21208.62216393 -.00000039  00000-0  29372-4 0  9996
2 00116  66.8106 297.7175 0068599  84.5909 276.2991 13.91793822 48189
Epoch (UTC): 27 July 2021 14:55:54
Eccentricity: 0.0068599
inclination: 66.8106°
perigee height: 872 km
apogee height: 972 km
right ascension of ascending node: 297.7175°
argument of perigee: 84.5909°
revolutions per day: 13.91793822
mean anomaly at epoch: 276.2991°
orbit number at epoch: 4818

The dashed part of the orbit path shows where the satellite is in the earth's shadow,  

DLR